Year,Month,Day,Hour,Minute,Value (Times are PST for temperature in C)
2014,07,08,00,00,17.60
2014,07,08,00,01,17.60
2014,07,08,00,02,17.60
2014,07,08,00,03,17.60
2014,07,08,00,04,17.60
2014,07,08,00,05,17.60
2014,07,08,00,06,17.60
2014,07,08,00,07,17.60
2014,07,08,00,08,17.60
2014,07,08,00,09,17.60
2014,07,08,00,10,17.60
2014,07,08,00,11,17.50
2014,07,08,00,12,17.50
2014,07,08,00,13,17.50
2014,07,08,00,14,17.50
2014,07,08,00,15,17.50
2014,07,08,00,16,17.50
2014,07,08,00,17,17.50
2014,07,08,00,18,17.50
2014,07,08,00,19,17.50
2014,07,08,00,20,17.40
2014,07,08,00,21,17.40
2014,07,08,00,22,17.40
2014,07,08,00,23,17.40
2014,07,08,00,24,17.40
2014,07,08,00,25,17.30
2014,07,08,00,26,17.30
2014,07,08,00,27,17.30
2014,07,08,00,28,17.30
2014,07,08,00,29,17.30
2014,07,08,00,30,17.30
2014,07,08,00,31,17.20
2014,07,08,00,32,17.20
2014,07,08,00,33,17.20
2014,07,08,00,34,17.20
2014,07,08,00,35,17.10
2014,07,08,00,36,17.10
2014,07,08,00,37,17.10
2014,07,08,00,38,17.10
2014,07,08,00,39,17.10
2014,07,08,00,40,17.10
2014,07,08,00,41,17.10
2014,07,08,00,42,17.10
2014,07,08,00,43,17.10
2014,07,08,00,44,17.10
2014,07,08,00,45,17.10
2014,07,08,00,46,17.10
2014,07,08,00,47,17.10
2014,07,08,00,48,17.10
2014,07,08,00,49,17.10
2014,07,08,00,50,17.10
2014,07,08,00,51,17.10
2014,07,08,00,52,17.10
2014,07,08,00,53,17.10
2014,07,08,00,54,17.10
2014,07,08,00,55,17.20
2014,07,08,00,56,17.20
2014,07,08,00,57,17.10
2014,07,08,00,58,17.10
2014,07,08,00,59,17.10
2014,07,08,01,00,17.10
2014,07,08,01,01,17.10
2014,07,08,01,02,17.10
2014,07,08,01,03,17.10
2014,07,08,01,04,17.10
2014,07,08,01,05,17.10
2014,07,08,01,06,17.10
2014,07,08,01,07,17.10
2014,07,08,01,08,17.10
2014,07,08,01,09,17.10
2014,07,08,01,10,17.10
2014,07,08,01,11,17.00
2014,07,08,01,12,17.00
2014,07,08,01,13,17.00
2014,07,08,01,14,17.00
2014,07,08,01,15,17.00
2014,07,08,01,16,17.00
2014,07,08,01,17,17.00
2014,07,08,01,18,17.00
2014,07,08,01,19,17.00
2014,07,08,01,20,17.00
2014,07,08,01,21,17.00
2014,07,08,01,22,17.00
2014,07,08,01,23,17.00
2014,07,08,01,24,17.00
2014,07,08,01,25,17.00
2014,07,08,01,26,16.90
2014,07,08,01,27,16.90
2014,07,08,01,28,16.90
2014,07,08,01,29,16.90
2014,07,08,01,30,16.90
2014,07,08,01,31,16.80
2014,07,08,01,32,16.80
2014,07,08,01,33,16.80
2014,07,08,01,34,16.80
2014,07,08,01,35,16.80
2014,07,08,01,36,16.70
2014,07,08,01,37,16.70
2014,07,08,01,38,16.70
2014,07,08,01,39,16.70
2014,07,08,01,40,16.70
2014,07,08,01,41,16.70
2014,07,08,01,42,16.70
2014,07,08,01,43,16.70
2014,07,08,01,44,16.70
2014,07,08,01,45,16.60
2014,07,08,01,46,16.60
2014,07,08,01,47,16.60
2014,07,08,01,48,16.60
2014,07,08,01,49,16.50
2014,07,08,01,50,16.40
2014,07,08,01,51,16.40
2014,07,08,01,52,16.40
2014,07,08,01,53,16.40
2014,07,08,01,54,16.40
2014,07,08,01,55,16.40
2014,07,08,01,56,16.30
2014,07,08,01,57,16.30
2014,07,08,01,58,16.30
2014,07,08,01,59,16.30
2014,07,08,02,00,16.30
2014,07,08,02,01,16.30
2014,07,08,02,02,16.30
2014,07,08,02,03,16.30
2014,07,08,02,04,16.30
2014,07,08,02,05,16.30
2014,07,08,02,06,16.30
2014,07,08,02,07,16.30
2014,07,08,02,08,16.30
2014,07,08,02,09,16.30
2014,07,08,02,10,16.30
2014,07,08,02,11,16.30
2014,07,08,02,12,16.30
2014,07,08,02,13,16.30
2014,07,08,02,14,16.30
2014,07,08,02,15,16.30
2014,07,08,02,16,16.30
2014,07,08,02,17,16.30
2014,07,08,02,18,16.30
2014,07,08,02,19,16.30
2014,07,08,02,20,16.30
2014,07,08,02,21,16.30
2014,07,08,02,22,16.20
2014,07,08,02,23,16.20
2014,07,08,02,24,16.20
2014,07,08,02,25,16.20
2014,07,08,02,26,16.30
2014,07,08,02,27,16.30
2014,07,08,02,28,16.30
2014,07,08,02,29,16.30
2014,07,08,02,30,16.30
2014,07,08,02,31,16.30
2014,07,08,02,32,16.30
2014,07,08,02,33,16.30
2014,07,08,02,34,16.30
2014,07,08,02,35,16.30
2014,07,08,02,36,16.30
2014,07,08,02,37,16.30
2014,07,08,02,38,16.30
2014,07,08,02,39,16.30
2014,07,08,02,40,16.30
2014,07,08,02,41,16.20
2014,07,08,02,42,16.20
2014,07,08,02,43,16.20
2014,07,08,02,44,16.20
2014,07,08,02,45,16.20
2014,07,08,02,46,16.20
2014,07,08,02,47,16.20
2014,07,08,02,48,16.20
2014,07,08,02,49,16.20
2014,07,08,02,50,16.20
2014,07,08,02,51,16.20
2014,07,08,02,52,16.20
2014,07,08,02,53,16.20
2014,07,08,02,54,16.20
2014,07,08,02,55,16.20
2014,07,08,02,56,16.20
2014,07,08,02,57,16.20
2014,07,08,02,58,16.10
2014,07,08,02,59,16.10
2014,07,08,03,00,16.10
2014,07,08,03,01,16.10
2014,07,08,03,02,16.10
2014,07,08,03,03,16.10
2014,07,08,03,04,16.10
2014,07,08,03,05,16.10
2014,07,08,03,06,16.10
2014,07,08,03,07,16.10
2014,07,08,03,08,16.10
2014,07,08,03,09,16.10
2014,07,08,03,10,16.10
2014,07,08,03,11,16.10
2014,07,08,03,12,16.10
2014,07,08,03,13,16.00
2014,07,08,03,14,15.90
2014,07,08,03,15,15.90
2014,07,08,03,16,15.90
2014,07,08,03,17,15.90
2014,07,08,03,18,15.90
2014,07,08,03,19,15.80
2014,07,08,03,20,15.80
2014,07,08,03,21,15.80
2014,07,08,03,22,15.80
2014,07,08,03,23,15.80
2014,07,08,03,24,15.80
2014,07,08,03,25,15.80
2014,07,08,03,26,15.80
2014,07,08,03,27,15.80
2014,07,08,03,28,15.80
2014,07,08,03,29,15.80
2014,07,08,03,30,15.80
2014,07,08,03,31,15.80
2014,07,08,03,32,15.80
2014,07,08,03,33,15.80
2014,07,08,03,34,15.80
2014,07,08,03,35,15.70
2014,07,08,03,36,15.70
2014,07,08,03,37,15.70
2014,07,08,03,38,15.70
2014,07,08,03,39,15.70
2014,07,08,03,40,15.70
2014,07,08,03,41,15.70
2014,07,08,03,42,15.70
2014,07,08,03,43,15.70
2014,07,08,03,44,15.60
2014,07,08,03,45,15.60
2014,07,08,03,46,15.60
2014,07,08,03,47,15.60
2014,07,08,03,48,15.60
2014,07,08,03,49,15.60
2014,07,08,03,50,15.60
2014,07,08,03,51,15.60
2014,07,08,03,52,15.60
2014,07,08,03,53,15.60
2014,07,08,03,54,15.50
2014,07,08,03,55,15.50
2014,07,08,03,56,15.50
2014,07,08,03,57,15.50
2014,07,08,03,58,15.50
2014,07,08,03,59,15.50
2014,07,08,04,00,15.50
2014,07,08,04,01,15.50
2014,07,08,04,02,15.50
2014,07,08,04,03,15.50
2014,07,08,04,04,15.50
2014,07,08,04,05,15.50
2014,07,08,04,06,15.50
2014,07,08,04,07,15.40
2014,07,08,04,08,15.40
2014,07,08,04,09,15.40
2014,07,08,04,10,15.30
2014,07,08,04,11,15.30
2014,07,08,04,12,15.30
2014,07,08,04,13,15.30
2014,07,08,04,14,15.30
2014,07,08,04,15,15.30
2014,07,08,04,16,15.30
2014,07,08,04,17,15.30
2014,07,08,04,18,15.30
2014,07,08,04,19,15.30
2014,07,08,04,20,15.30
2014,07,08,04,21,15.30
2014,07,08,04,22,15.30
2014,07,08,04,23,15.30
2014,07,08,04,24,15.30
2014,07,08,04,25,15.30
2014,07,08,04,26,15.30
2014,07,08,04,27,15.30
2014,07,08,04,28,15.30
2014,07,08,04,29,15.30
2014,07,08,04,30,15.30
2014,07,08,04,31,15.30
2014,07,08,04,32,15.30
2014,07,08,04,33,15.30
2014,07,08,04,34,15.30
2014,07,08,04,35,15.30
2014,07,08,04,36,15.30
2014,07,08,04,37,15.30
2014,07,08,04,38,15.30
2014,07,08,04,39,15.30
2014,07,08,04,40,15.30
2014,07,08,04,41,15.30
2014,07,08,04,42,15.20
2014,07,08,04,43,15.20
2014,07,08,04,44,15.20
2014,07,08,04,45,15.20
2014,07,08,04,46,15.20
2014,07,08,04,47,15.20
2014,07,08,04,48,15.10
2014,07,08,04,49,15.10
2014,07,08,04,50,15.10
2014,07,08,04,51,15.10
2014,07,08,04,52,15.10
2014,07,08,04,53,15.10
2014,07,08,04,54,15.10
2014,07,08,04,55,15.00
2014,07,08,04,56,15.00
2014,07,08,04,57,15.00
2014,07,08,04,58,15.00
2014,07,08,04,59,15.00
2014,07,08,05,00,15.00
2014,07,08,05,01,14.90
2014,07,08,05,02,14.90
2014,07,08,05,03,14.90
2014,07,08,05,04,14.90
2014,07,08,05,05,14.90
2014,07,08,05,06,14.90
2014,07,08,05,07,14.90
2014,07,08,05,08,14.90
2014,07,08,05,09,14.90
2014,07,08,05,10,14.80
2014,07,08,05,11,14.80
2014,07,08,05,12,14.80
2014,07,08,05,13,14.80
2014,07,08,05,14,14.80
2014,07,08,05,15,14.80
2014,07,08,05,16,14.80
2014,07,08,05,17,14.80
2014,07,08,05,18,14.80
2014,07,08,05,19,14.80
2014,07,08,05,20,14.80
2014,07,08,05,21,14.80
2014,07,08,05,22,14.80
2014,07,08,05,23,14.80
2014,07,08,05,24,14.80
2014,07,08,05,25,14.80
2014,07,08,05,26,14.80
2014,07,08,05,27,14.80
2014,07,08,05,28,14.80
2014,07,08,05,29,14.80
2014,07,08,05,30,14.80
2014,07,08,05,31,14.80
2014,07,08,05,32,14.80
2014,07,08,05,33,14.80
2014,07,08,05,34,14.80
2014,07,08,05,35,14.80
2014,07,08,05,36,14.80
2014,07,08,05,37,14.80
2014,07,08,05,38,14.80
2014,07,08,05,39,14.80
2014,07,08,05,40,14.90
2014,07,08,05,41,14.90
2014,07,08,05,42,14.90
2014,07,08,05,43,14.90
2014,07,08,05,44,14.90
2014,07,08,05,45,14.90
2014,07,08,05,46,14.90
2014,07,08,05,47,14.80
2014,07,08,05,48,14.80
2014,07,08,05,49,14.80
2014,07,08,05,50,14.80
2014,07,08,05,51,14.80
2014,07,08,05,52,14.80
2014,07,08,05,53,14.90
2014,07,08,05,54,14.90
2014,07,08,05,55,14.90
2014,07,08,05,56,14.90
2014,07,08,05,57,15.00
2014,07,08,05,58,15.00
2014,07,08,05,59,15.00
2014,07,08,06,00,15.00
2014,07,08,06,01,15.00
2014,07,08,06,02,15.10
2014,07,08,06,03,15.10
2014,07,08,06,04,15.20
2014,07,08,06,05,15.30
2014,07,08,06,06,15.30
2014,07,08,06,07,15.40
2014,07,08,06,08,15.50
2014,07,08,06,09,15.60
2014,07,08,06,10,15.60
2014,07,08,06,11,15.70
2014,07,08,06,12,15.70
2014,07,08,06,13,15.80
2014,07,08,06,14,15.80
2014,07,08,06,15,15.90
2014,07,08,06,16,15.90
2014,07,08,06,17,16.10
2014,07,08,06,18,16.10
2014,07,08,06,19,16.20
2014,07,08,06,20,16.20
2014,07,08,06,21,16.20
2014,07,08,06,22,16.30
2014,07,08,06,23,16.30
2014,07,08,06,24,16.30
2014,07,08,06,25,16.40
2014,07,08,06,26,16.40
2014,07,08,06,27,16.40
2014,07,08,06,28,16.40
2014,07,08,06,29,16.40
2014,07,08,06,30,16.40
2014,07,08,06,31,16.50
2014,07,08,06,32,16.60
2014,07,08,06,33,16.60
2014,07,08,06,34,16.70
2014,07,08,06,35,16.70
2014,07,08,06,36,16.70
2014,07,08,06,37,16.70
2014,07,08,06,38,16.80
2014,07,08,06,39,16.80
2014,07,08,06,40,16.90
2014,07,08,06,41,16.90
2014,07,08,06,42,17.00
2014,07,08,06,43,17.10
2014,07,08,06,44,17.20
2014,07,08,06,45,17.20
2014,07,08,06,46,17.20
2014,07,08,06,47,17.30
2014,07,08,06,48,17.30
2014,07,08,06,49,17.30
2014,07,08,06,50,17.40
2014,07,08,06,51,17.50
2014,07,08,06,52,17.50
2014,07,08,06,53,17.60
2014,07,08,06,54,17.70
2014,07,08,06,55,17.80
2014,07,08,06,56,18.00
2014,07,08,06,57,18.10
2014,07,08,06,58,18.30
2014,07,08,06,59,18.40
2014,07,08,07,00,18.50
2014,07,08,07,01,18.60
2014,07,08,07,02,18.70
2014,07,08,07,03,18.80
2014,07,08,07,04,18.90
2014,07,08,07,05,19.00
2014,07,08,07,06,19.10
2014,07,08,07,07,19.20
2014,07,08,07,08,19.30
2014,07,08,07,09,19.40
2014,07,08,07,10,19.60
2014,07,08,07,11,19.70
2014,07,08,07,12,19.80
2014,07,08,07,13,19.90
2014,07,08,07,14,19.90
2014,07,08,07,15,20.00
2014,07,08,07,16,20.10
2014,07,08,07,17,20.20
2014,07,08,07,18,20.20
2014,07,08,07,19,20.20
2014,07,08,07,20,20.00
2014,07,08,07,21,19.90
2014,07,08,07,22,19.90
2014,07,08,07,23,19.90
2014,07,08,07,24,19.90
2014,07,08,07,25,19.90
2014,07,08,07,26,19.90
2014,07,08,07,27,19.90
2014,07,08,07,28,19.90
2014,07,08,07,29,19.90
2014,07,08,07,30,19.90
2014,07,08,07,31,19.80
2014,07,08,07,32,19.80
2014,07,08,07,33,19.80
2014,07,08,07,34,19.80
2014,07,08,07,35,19.80
2014,07,08,07,36,19.80
2014,07,08,07,37,19.80
2014,07,08,07,38,19.90
2014,07,08,07,39,19.80
2014,07,08,07,40,19.80
2014,07,08,07,41,19.90
2014,07,08,07,42,19.90
2014,07,08,07,43,19.90
2014,07,08,07,44,19.90
2014,07,08,07,45,19.90
2014,07,08,07,46,19.90
2014,07,08,07,47,19.80
2014,07,08,07,48,19.80
2014,07,08,07,49,19.90
2014,07,08,07,50,19.90
2014,07,08,07,51,19.80
2014,07,08,07,52,19.80
2014,07,08,07,53,19.70
2014,07,08,07,54,19.70
2014,07,08,07,55,19.70
2014,07,08,07,56,19.70
2014,07,08,07,57,19.70
2014,07,08,07,58,19.70
2014,07,08,07,59,19.80
2014,07,08,08,00,19.90
2014,07,08,08,01,19.90
2014,07,08,08,02,19.90
2014,07,08,08,03,19.90
2014,07,08,08,04,19.90
2014,07,08,08,05,19.90
2014,07,08,08,06,19.90
2014,07,08,08,07,19.80
2014,07,08,08,08,19.80
2014,07,08,08,09,19.70
2014,07,08,08,10,19.70
2014,07,08,08,11,19.60
2014,07,08,08,12,19.50
2014,07,08,08,13,19.50
2014,07,08,08,14,19.50
2014,07,08,08,15,19.60
2014,07,08,08,16,19.70
2014,07,08,08,17,19.90
2014,07,08,08,18,19.90
2014,07,08,08,19,19.90
2014,07,08,08,20,20.00
2014,07,08,08,21,19.90
2014,07,08,08,22,20.00
2014,07,08,08,23,20.10
2014,07,08,08,24,20.00
2014,07,08,08,25,19.90
2014,07,08,08,26,19.90
2014,07,08,08,27,19.90
2014,07,08,08,28,19.80
2014,07,08,08,29,19.80
2014,07,08,08,30,19.60
2014,07,08,08,31,19.60
2014,07,08,08,32,19.50
2014,07,08,08,33,19.50
2014,07,08,08,34,19.40
2014,07,08,08,35,19.40
2014,07,08,08,36,19.20
2014,07,08,08,37,19.30
2014,07,08,08,38,19.20
2014,07,08,08,39,19.20
2014,07,08,08,40,19.10
2014,07,08,08,41,19.20
2014,07,08,08,42,19.20
2014,07,08,08,43,19.10
2014,07,08,08,44,19.10
2014,07,08,08,45,19.20
2014,07,08,08,46,19.20
2014,07,08,08,47,19.10
2014,07,08,08,48,19.10
2014,07,08,08,49,19.20
2014,07,08,08,50,19.20
2014,07,08,08,51,19.30
2014,07,08,08,52,19.30
2014,07,08,08,53,19.40
2014,07,08,08,54,19.50
2014,07,08,08,55,19.50
2014,07,08,08,56,19.50
2014,07,08,08,57,19.50
2014,07,08,08,58,19.60
2014,07,08,08,59,19.60
2014,07,08,09,00,19.70
2014,07,08,09,01,19.80
2014,07,08,09,02,19.80
2014,07,08,09,03,19.70
2014,07,08,09,04,19.60
2014,07,08,09,05,19.60
2014,07,08,09,06,19.60
2014,07,08,09,07,19.60
2014,07,08,09,08,19.70
2014,07,08,09,09,19.80
2014,07,08,09,10,19.70
2014,07,08,09,11,19.70
2014,07,08,09,12,19.70
2014,07,08,09,13,19.70
2014,07,08,09,14,19.60
2014,07,08,09,15,19.60
2014,07,08,09,16,19.70
2014,07,08,09,17,19.70
2014,07,08,09,18,19.70
2014,07,08,09,19,19.60
2014,07,08,09,20,19.60
2014,07,08,09,21,19.60
2014,07,08,09,22,19.60
2014,07,08,09,23,19.60
2014,07,08,09,24,19.50
2014,07,08,09,25,19.50
2014,07,08,09,26,19.60
2014,07,08,09,27,19.70
2014,07,08,09,28,19.90
2014,07,08,09,29,19.90
2014,07,08,09,30,19.90
2014,07,08,09,31,19.90
2014,07,08,09,32,19.90
2014,07,08,09,33,19.90
2014,07,08,09,34,20.00
2014,07,08,09,35,20.10
2014,07,08,09,36,20.20
2014,07,08,09,37,20.20
2014,07,08,09,38,20.20
2014,07,08,09,39,20.20
2014,07,08,09,40,20.30
2014,07,08,09,41,20.20
2014,07,08,09,42,20.30
2014,07,08,09,43,20.40
2014,07,08,09,44,20.60
2014,07,08,09,45,20.60
2014,07,08,09,46,20.50
2014,07,08,09,47,20.60
2014,07,08,09,48,20.70
2014,07,08,09,49,20.70
2014,07,08,09,50,20.60
2014,07,08,09,51,20.50
2014,07,08,09,52,20.40
2014,07,08,09,53,20.50
2014,07,08,09,54,20.60
2014,07,08,09,55,20.60
2014,07,08,09,56,20.60
2014,07,08,09,57,20.50
2014,07,08,09,58,20.50
2014,07,08,09,59,20.30
2014,07,08,10,00,20.30
2014,07,08,10,01,20.30
2014,07,08,10,02,20.40
2014,07,08,10,03,20.40
2014,07,08,10,04,20.30
2014,07,08,10,05,20.20
2014,07,08,10,06,20.20
2014,07,08,10,07,20.20
2014,07,08,10,08,20.30
2014,07,08,10,09,20.30
2014,07,08,10,10,20.40
2014,07,08,10,11,20.50
2014,07,08,10,12,20.50
2014,07,08,10,13,20.40
2014,07,08,10,14,20.40
2014,07,08,10,15,20.40
2014,07,08,10,16,20.40
2014,07,08,10,17,20.50
2014,07,08,10,18,20.40
2014,07,08,10,19,20.40
2014,07,08,10,20,20.40
2014,07,08,10,21,20.50
2014,07,08,10,22,20.50
2014,07,08,10,23,20.70
2014,07,08,10,24,20.90
2014,07,08,10,25,20.90
2014,07,08,10,26,21.00
2014,07,08,10,27,21.10
2014,07,08,10,28,21.00
2014,07,08,10,29,21.00
2014,07,08,10,30,20.90
2014,07,08,10,31,20.90
2014,07,08,10,32,20.80
2014,07,08,10,33,20.80
2014,07,08,10,34,20.80
2014,07,08,10,35,20.90
2014,07,08,10,36,20.90
2014,07,08,10,37,20.90
2014,07,08,10,38,21.00
2014,07,08,10,39,21.00
2014,07,08,10,40,21.10
2014,07,08,10,41,21.20
2014,07,08,10,42,21.20
2014,07,08,10,43,21.20
2014,07,08,10,44,21.20
2014,07,08,10,45,21.10
2014,07,08,10,46,21.10
2014,07,08,10,47,21.00
2014,07,08,10,48,21.00
2014,07,08,10,49,20.90
2014,07,08,10,50,20.90
2014,07,08,10,51,21.00
2014,07,08,10,52,21.10
2014,07,08,10,53,21.10
2014,07,08,10,54,21.20
2014,07,08,10,55,21.30
2014,07,08,10,56,21.20
2014,07,08,10,57,21.10
2014,07,08,10,58,21.00
2014,07,08,10,59,21.00
2014,07,08,11,00,21.00
2014,07,08,11,01,21.10
2014,07,08,11,02,21.20
2014,07,08,11,03,21.20
2014,07,08,11,04,21.20
2014,07,08,11,05,21.40
2014,07,08,11,06,21.50
2014,07,08,11,07,21.60
2014,07,08,11,08,21.60
2014,07,08,11,09,21.50
2014,07,08,11,10,21.60
2014,07,08,11,11,21.50
2014,07,08,11,12,21.50
2014,07,08,11,13,21.60
2014,07,08,11,14,21.60
2014,07,08,11,15,21.50
2014,07,08,11,16,21.40
2014,07,08,11,17,21.30
2014,07,08,11,18,21.30
2014,07,08,11,19,21.20
2014,07,08,11,20,21.10
2014,07,08,11,21,21.20
2014,07,08,11,22,21.20
2014,07,08,11,23,21.30
2014,07,08,11,24,21.40
2014,07,08,11,25,21.60
2014,07,08,11,26,21.60
2014,07,08,11,27,21.60
2014,07,08,11,28,21.60
2014,07,08,11,29,21.60
2014,07,08,11,30,21.60
2014,07,08,11,31,21.50
2014,07,08,11,32,21.30
2014,07,08,11,33,21.30
2014,07,08,11,34,21.30
2014,07,08,11,35,21.30
2014,07,08,11,36,21.30
2014,07,08,11,37,21.30
2014,07,08,11,38,21.30
2014,07,08,11,39,21.30
2014,07,08,11,40,21.30
2014,07,08,11,41,21.30
2014,07,08,11,42,21.40
2014,07,08,11,43,21.50
2014,07,08,11,44,21.60
2014,07,08,11,45,21.60
2014,07,08,11,46,21.60
2014,07,08,11,47,21.60
2014,07,08,11,48,21.60
2014,07,08,11,49,21.80
2014,07,08,11,50,21.90
2014,07,08,11,51,21.90
2014,07,08,11,52,21.80
2014,07,08,11,53,21.80
2014,07,08,11,54,21.70
2014,07,08,11,55,21.60
2014,07,08,11,56,21.60
2014,07,08,11,57,21.60
2014,07,08,11,58,21.60
2014,07,08,11,59,21.60
2014,07,08,12,00,21.60
2014,07,08,12,01,21.60
2014,07,08,12,02,21.70
2014,07,08,12,03,21.80
2014,07,08,12,04,21.80
2014,07,08,12,05,21.80
2014,07,08,12,06,21.80
2014,07,08,12,07,21.80
2014,07,08,12,08,22.00
2014,07,08,12,09,22.00
2014,07,08,12,10,22.10
2014,07,08,12,11,22.10
2014,07,08,12,12,22.00
2014,07,08,12,13,22.10
2014,07,08,12,14,22.20
2014,07,08,12,15,22.30
2014,07,08,12,16,22.30
2014,07,08,12,17,22.20
2014,07,08,12,18,22.00
2014,07,08,12,19,21.80
2014,07,08,12,20,21.80
2014,07,08,12,21,21.90
2014,07,08,12,22,22.00
2014,07,08,12,23,22.00
2014,07,08,12,24,21.90
2014,07,08,12,25,21.80
2014,07,08,12,26,21.90
2014,07,08,12,27,22.00
2014,07,08,12,28,22.00
2014,07,08,12,29,22.00
2014,07,08,12,30,22.10
2014,07,08,12,31,22.10
2014,07,08,12,32,22.10
2014,07,08,12,33,22.20
2014,07,08,12,34,22.20
2014,07,08,12,35,22.00
2014,07,08,12,36,22.00
2014,07,08,12,37,22.00
2014,07,08,12,38,22.00
2014,07,08,12,39,22.10
2014,07,08,12,40,22.20
2014,07,08,12,41,22.50
2014,07,08,12,42,22.50
2014,07,08,12,43,22.70
2014,07,08,12,44,22.70
2014,07,08,12,45,22.70
2014,07,08,12,46,22.70
2014,07,08,12,47,22.70
2014,07,08,12,48,22.70
2014,07,08,12,49,22.70
2014,07,08,12,50,22.70
2014,07,08,12,51,22.80
2014,07,08,12,52,22.70
2014,07,08,12,53,22.60
2014,07,08,12,54,22.60
2014,07,08,12,55,22.70
2014,07,08,12,56,22.60
2014,07,08,12,57,22.60
2014,07,08,12,58,22.70
2014,07,08,12,59,22.70
2014,07,08,13,00,22.80
2014,07,08,13,01,22.80
2014,07,08,13,02,22.80
2014,07,08,13,03,22.80
2014,07,08,13,04,22.80
2014,07,08,13,05,22.70
2014,07,08,13,06,22.70
2014,07,08,13,07,22.80
2014,07,08,13,08,22.90
2014,07,08,13,09,22.80
2014,07,08,13,10,22.80
2014,07,08,13,11,22.90
2014,07,08,13,12,22.90
2014,07,08,13,13,22.90
2014,07,08,13,14,22.90
2014,07,08,13,15,22.90
2014,07,08,13,16,22.90
2014,07,08,13,17,22.90
2014,07,08,13,18,22.80
2014,07,08,13,19,22.90
2014,07,08,13,20,22.90
2014,07,08,13,21,22.90
2014,07,08,13,22,22.90
2014,07,08,13,23,22.90
2014,07,08,13,24,22.90
2014,07,08,13,25,23.00
2014,07,08,13,26,23.10
2014,07,08,13,27,23.20
2014,07,08,13,28,23.30
2014,07,08,13,29,23.30
2014,07,08,13,30,23.20
2014,07,08,13,31,23.20
2014,07,08,13,32,23.30
2014,07,08,13,33,23.30
2014,07,08,13,34,23.40
2014,07,08,13,35,23.40
2014,07,08,13,36,23.40
2014,07,08,13,37,23.40
2014,07,08,13,38,23.40
2014,07,08,13,39,23.40
2014,07,08,13,40,23.30
2014,07,08,13,41,23.30
2014,07,08,13,42,23.30
2014,07,08,13,43,23.30
2014,07,08,13,44,23.30
2014,07,08,13,45,23.30
2014,07,08,13,46,23.30
2014,07,08,13,47,23.30
2014,07,08,13,48,23.30
2014,07,08,13,49,23.30
2014,07,08,13,50,23.30
2014,07,08,13,51,23.30
2014,07,08,13,52,23.20
2014,07,08,13,53,23.20
2014,07,08,13,54,23.30
2014,07,08,13,55,23.30
2014,07,08,13,56,23.30
2014,07,08,13,57,23.50
2014,07,08,13,58,23.60
2014,07,08,13,59,23.60
2014,07,08,14,00,23.60
2014,07,08,14,01,23.60
2014,07,08,14,02,23.50
2014,07,08,14,03,23.40
2014,07,08,14,04,23.40
2014,07,08,14,05,23.40
2014,07,08,14,06,23.30
2014,07,08,14,07,23.30
2014,07,08,14,08,23.30
2014,07,08,14,09,23.30
2014,07,08,14,10,23.40
2014,07,08,14,11,23.40
2014,07,08,14,12,23.30
2014,07,08,14,13,23.30
2014,07,08,14,14,23.30
2014,07,08,14,15,23.30
2014,07,08,14,16,23.30
2014,07,08,14,17,23.40
2014,07,08,14,18,23.50
2014,07,08,14,19,23.70
2014,07,08,14,20,23.70
2014,07,08,14,21,23.70
2014,07,08,14,22,23.70
2014,07,08,14,23,23.80
2014,07,08,14,24,23.80
2014,07,08,14,25,23.70
2014,07,08,14,26,23.70
2014,07,08,14,27,23.80
2014,07,08,14,28,23.80
2014,07,08,14,29,23.70
2014,07,08,14,30,23.50
2014,07,08,14,31,23.40
2014,07,08,14,32,23.50
2014,07,08,14,33,23.70
2014,07,08,14,34,23.70
2014,07,08,14,35,23.70
2014,07,08,14,36,23.70
2014,07,08,14,37,23.70
2014,07,08,14,38,23.70
2014,07,08,14,39,23.70
2014,07,08,14,40,23.80
2014,07,08,14,41,23.90
2014,07,08,14,42,23.80
2014,07,08,14,43,23.70
2014,07,08,14,44,23.70
2014,07,08,14,45,23.70
2014,07,08,14,46,23.70
2014,07,08,14,47,23.70
2014,07,08,14,48,23.70
2014,07,08,14,49,23.70
2014,07,08,14,50,23.60
2014,07,08,14,51,23.50
2014,07,08,14,52,23.30
2014,07,08,14,53,23.20
2014,07,08,14,54,23.20
2014,07,08,14,55,23.30
2014,07,08,14,56,23.30
2014,07,08,14,57,23.30
2014,07,08,14,58,23.40
2014,07,08,14,59,23.60
2014,07,08,15,00,23.60
2014,07,08,15,01,23.70
2014,07,08,15,02,23.80
2014,07,08,15,03,23.90
2014,07,08,15,04,23.90
2014,07,08,15,05,23.80
2014,07,08,15,06,23.80
2014,07,08,15,07,23.80
2014,07,08,15,08,23.70
2014,07,08,15,09,23.70
2014,07,08,15,10,23.70
2014,07,08,15,11,23.70
2014,07,08,15,12,23.70
2014,07,08,15,13,23.70
2014,07,08,15,14,23.60
2014,07,08,15,15,23.60
2014,07,08,15,16,23.50
2014,07,08,15,17,23.40
2014,07,08,15,18,23.50
2014,07,08,15,19,23.60
2014,07,08,15,20,23.60
2014,07,08,15,21,23.70
2014,07,08,15,22,23.70
2014,07,08,15,23,23.80
2014,07,08,15,24,24.00
2014,07,08,15,25,24.10
2014,07,08,15,26,24.20
2014,07,08,15,27,24.40
2014,07,08,15,28,24.50
2014,07,08,15,29,24.70
2014,07,08,15,30,24.80
2014,07,08,15,31,24.90
2014,07,08,15,32,24.90
2014,07,08,15,33,24.90
2014,07,08,15,34,25.00
2014,07,08,15,35,25.00
2014,07,08,15,36,25.20
2014,07,08,15,37,25.20
2014,07,08,15,38,25.10
2014,07,08,15,39,24.90
2014,07,08,15,40,24.60
2014,07,08,15,41,24.50
2014,07,08,15,42,24.60
2014,07,08,15,43,24.50
2014,07,08,15,44,24.40
2014,07,08,15,45,24.40
2014,07,08,15,46,24.50
2014,07,08,15,47,24.70
2014,07,08,15,48,24.70
2014,07,08,15,49,24.70
2014,07,08,15,50,24.60
2014,07,08,15,51,24.60
2014,07,08,15,52,24.60
2014,07,08,15,53,24.60
2014,07,08,15,54,24.50
2014,07,08,15,55,24.50
2014,07,08,15,56,24.60
2014,07,08,15,57,24.70
2014,07,08,15,58,24.80
2014,07,08,15,59,24.70
2014,07,08,16,00,24.60
2014,07,08,16,01,24.70
2014,07,08,16,02,24.60
2014,07,08,16,03,24.50
2014,07,08,16,04,24.60
2014,07,08,16,05,24.60
2014,07,08,16,06,24.70
2014,07,08,16,07,24.70
2014,07,08,16,08,24.60
2014,07,08,16,09,24.60
2014,07,08,16,10,24.60
2014,07,08,16,11,24.60
2014,07,08,16,12,24.70
2014,07,08,16,13,24.90
2014,07,08,16,14,25.10
2014,07,08,16,15,25.30
2014,07,08,16,16,25.40
2014,07,08,16,17,25.60
2014,07,08,16,18,25.60
2014,07,08,16,19,25.40
2014,07,08,16,20,25.40
2014,07,08,16,21,25.20
2014,07,08,16,22,25.00
2014,07,08,16,23,25.00
2014,07,08,16,24,25.00
2014,07,08,16,25,25.10
2014,07,08,16,26,25.20
2014,07,08,16,27,25.20
2014,07,08,16,28,25.10
2014,07,08,16,29,25.00
2014,07,08,16,30,25.10
2014,07,08,16,31,25.10
2014,07,08,16,32,24.90
2014,07,08,16,33,24.90
2014,07,08,16,34,25.00
2014,07,08,16,35,25.00
2014,07,08,16,36,25.00
2014,07,08,16,37,25.00
2014,07,08,16,38,25.10
2014,07,08,16,39,25.20
2014,07,08,16,40,25.20
2014,07,08,16,41,25.30
2014,07,08,16,42,25.20
2014,07,08,16,43,25.30
2014,07,08,16,44,25.40
2014,07,08,16,45,25.50
2014,07,08,16,46,25.50
2014,07,08,16,47,25.40
2014,07,08,16,48,25.40
2014,07,08,16,49,25.40
2014,07,08,16,50,25.50
2014,07,08,16,51,25.60
2014,07,08,16,52,25.70
2014,07,08,16,53,25.60
2014,07,08,16,54,25.60
2014,07,08,16,55,25.50
2014,07,08,16,56,25.50
2014,07,08,16,57,25.50
2014,07,08,16,58,25.50
2014,07,08,16,59,25.50
2014,07,08,17,00,25.60
2014,07,08,17,01,25.60
2014,07,08,17,02,25.70
2014,07,08,17,03,25.80
2014,07,08,17,04,25.80
2014,07,08,17,05,25.80
2014,07,08,17,06,25.90
2014,07,08,17,07,26.00
2014,07,08,17,08,26.00
2014,07,08,17,09,26.00
2014,07,08,17,10,26.00
2014,07,08,17,11,26.00
2014,07,08,17,12,25.90
2014,07,08,17,13,25.90
2014,07,08,17,14,25.90
2014,07,08,17,15,26.00
2014,07,08,17,16,26.10
2014,07,08,17,17,26.30
2014,07,08,17,18,26.40
2014,07,08,17,19,26.40